SAPPORO_(JGSDF/CIV) current weather conditions

sailwx.info

Wind from 300 at 13 knots

Air temperature -5.0° C
Visibility: greater than 4.9 NM
Dewpoint -10.0° C
Present weather: Light snow showers.

Last reported at 2020-Jan-25 11:00 UTC.
Time now 2020-Jan-25 13:47 UTC

Location: N 43°07' E 141°23'.
View on Google Maps.

See reports from other nearby stations

  
Tides and Currents Weather Stations Pressure Air Temp Water Temp Dewpoint Dewpoint Depression Visibility Wind Speed Wind Dir Waves Ship Positions
date/time (UTC)wind fromknots sea level pressurealtimeterstation pressurevisibilityair tempwater tempwave heightnotes
2020-Jan-25 11:00 300 13 4.9-5.0 Light snow showers.
2020-Jan-25 10:26 290 13 gusting 24 3.8-5.0 Light snow showers.
2020-Jan-25 10:07 290 12 gusting 24 1.9-5.0 Light snow showers.
2020-Jan-25 10:00 290 12 1.1-6.0 Light snow showers.
2020-Jan-25 09:17 290 14 gusting 26 1.6-5.0 Light snow showers.
2020-Jan-25 09:00 300 17 gusting 27 3.8-5.0 Light snow showers.
2020-Jan-25 08:23 290 13 gusting 28 4.3-5.0 Light snow showers.
2020-Jan-25 08:00 300 13 3.8-5.0 Light snow showers.
2020-Jan-25 07:00 290 15 gusting 27 4.9-4.0
2020-Jan-25 06:50 290 17 gusting 27 3.2-5.0 Light snow showers.
2020-Jan-25 06:39 300 17 gusting 27 1.6-5.0 Light snow showers. Blowing snow.
2020-Jan-25 06:01 310 18 gusting 27 1.0-5.0 Light snow showers. Blowing snow.
2020-Jan-25 06:00 310 18 1.0-5.0 Light snow showers. Blowing snow.
2020-Jan-25 05:36 310 15 1.6-4.0 Light snow showers. Blowing snow.
2020-Jan-25 05:26 310 15 0.4-5.0 Snow showers. Blowing snow.
2020-Jan-25 05:04 300 18 gusting 27 1.3-4.0 Light snow showers. Blowing snow.
2020-Jan-25 05:00 300 18 1.3-4.0 Light snow showers. Blowing snow.
2020-Jan-25 04:08 300 13 1.6-4.0 Light snow showers.
2020-Jan-25 04:00 300 14 0.3-6.0 Snow showers. Blowing snow.
2020-Jan-25 03:29 310 19 1.0-5.0 Light snow showers. Blowing snow.
2020-Jan-25 03:19 300 18 0.2-5.0 Snow showers. Blowing snow.
2020-Jan-25 03:00 290 18 gusting 31 2.2-4.0 Light snow showers.
2020-Jan-25 02:49 300 18 gusting 31 2.2-4.0 Light snow showers.
2020-Jan-25 02:21 300 19 3.2-4.0 Light snow showers.
2020-Jan-25 02:00 300 13 5.4-4.0
2020-Jan-25 01:33 310 11 4.3-5.0
2020-Jan-25 01:12 320 9 1.0-6.0 Light snow showers.
2020-Jan-25 01:00 290 9 0.3-7.0 Snow showers.
2020-Jan-25 00:00 260 7 1.0-7.0 Light snow showers.
2020-Jan-24 23:00 300 14 1.6-6.0 Light snow showers.
2020-Jan-24 22:00 290 9 1.1-7.0 Light snow showers.
2020-Jan-24 21:00 290 8 1.1-6.0 Light snow showers.
2020-Jan-24 11:00 290 14 gusting 25 0.5-6.0 Light snow showers. Blowing snow.
2020-Jan-24 10:32 290 9 gusting 20 1.6-6.0 Light snow showers. Blowing snow.
2020-Jan-24 10:15 280 9 gusting 20 0.5-6.0 Light snow showers. Blowing snow.
2020-Jan-24 10:10 280 9 gusting 20 1.6-6.0 Light snow showers. Blowing snow.
2020-Jan-24 10:00 280 15 gusting 26 0.5-6.0 Light snow showers. Blowing snow.
2020-Jan-24 09:48 280 12 gusting 21 0.5-6.0 Light snow showers. Blowing snow.
2020-Jan-24 09:00 290 12 gusting 21 1.6-6.0 Light snow showers. Blowing snow.
2020-Jan-24 08:00 300 15 gusting 26 1.6-6.0 Light snow showers. Blowing snow.
2020-Jan-24 07:11 300 17 gusting 27 1.6-5.0 Light snow showers. Blowing snow.
2020-Jan-24 07:00 300 17 3.2-5.0 Light snow showers.
2020-Jan-24 06:00 300 24 2.2-4.0 Light snow showers. Blowing snow.
2020-Jan-24 05:00 300 24 gusting 34 2.2-3.0 Light snow showers. Blowing snow.
2020-Jan-24 04:33 300 20 2.2-3.0 Light snow showers. Blowing snow.
2020-Jan-24 04:00 300 21 gusting 32 5.4-3.0 Light snow showers. Blowing snow.
2020-Jan-24 03:21 320 21 3.2-3.0 Light snow showers. Blowing snow.
2020-Jan-24 03:12 320 20 gusting 29 0.8-3.0 Light snow showers. Blowing snow.
2020-Jan-24 03:04 320 22 gusting 33 0.2-4.0 Snow showers. Blowing snow.
2020-Jan-24 03:00 290 21 gusting 33 2.7-3.0 Light snow showers. Blowing snow.
2020-Jan-24 02:00 300 20 gusting 29 5.4-2.0 Light snow showers.
2020-Jan-24 01:00 300 20 gusting 29 2.7-1.0 Light snow showers. Blowing snow.
2020-Jan-24 00:45 300 21 gusting 32 2.2-1.0 Light snow showers. Blowing snow.
2020-Jan-24 00:20 300 20 gusting 31 0.3-2.0 Snow showers.
2020-Jan-24 00:00 300 20 1.1-1.0 Light snow showers.
2020-Jan-23 23:23 300 18 0.3-1.0 Snow showers.
2020-Jan-23 23:00 310 17 0.8-1.0 Light snow showers.
2020-Jan-23 22:40 310 15 gusting 26 0.2-1.0 Snow showers.
2020-Jan-23 22:26 320 4 0.3-2.0 Snow showers.
2020-Jan-23 22:00 030 1 1.1-7.0 Light snow showers.
2020-Jan-23 21:26 320 4 1.1-8.0 Light snow showers.
2020-Jan-23 21:00 090 2 5.4-9.0 Light snow showers.